Regional Weather Roundup
Issued by NWS

Home | Current Version | Previous Version | Graphics & Text | Print | Product List | Glossary On
Versions: 1 2 3 4 5 6 7 8 9 10 11 12 13 14 15 16 17 18 19 20 21 22 23 24 25 26 27 28 29 30 31 32 33 34 35 36 37 38 39 40 41 42 43 44 45 46 47 48 49 50
000
ASUS43 KLSX 031607
RWRMO

WEATHER SUMMARY FOR MISSOURI
NATIONAL WEATHER SERVICE SPRINGFIELD MO
1100 AM CDT WED JUN 03 2015

NOTE: "FAIR" INDICATES FEW OR NO CLOUDS BELOW 12,000 FEET WITH NO
       SIGNIFICANT WEATHER AND/OR OBSTRUCTIONS TO VISIBILITY.
       CURRENT SKY AND/OR WEATHER CONDITIONS ARE NOT AVAILABLE FOR
       CHILLICOTHE AND FARMINGTON.

MOZ001>031-035>038-043-044-053-054-031700-
...NORTHERN AND WESTERN MISSOURI...

CITY           SKY/WX    TMP DP  RH WIND       PRES   REMARKS
KANSAS CTY INT TSTM      65  64  97 E9        30.01R FOG
KANSAS C DTWN  LGT RAIN  66  62  87 E6        29.99S
LEE`S SUMMIT   RAIN      64  63  96 E8        30.01S FOG
ST JOSEPH      RAIN      64  63  96 NW7       30.03R FOG
CHILLICOTHE      N/A     63  61  93 SE5       30.02S
KIRKSVILLE     LGT RAIN  62  61  96 SW5       30.03R FOG

$$
MOZ066>068-077>081-088>096-101>105-031700-
...SOUTHWEST MISSOURI...

CITY           SKY/WX    TMP DP  RH WIND       PRES   REMARKS
SPRINGFIELD    MOSUNNY   70  63  78 S9        30.01F
JOPLIN         MOSUNNY   79  67  66 S9        29.98S

$$
MOZ032>034-039>042-045>050-055>058-069>072-031700-
...CENTRAL MISSOURI...

CITY           SKY/WX    TMP DP  RH WIND       PRES   REMARKS
COLUMBIA       CLOUDY    70  62  76 SE8       30.01F
JEFFERSON CITY PTSUNNY   68  60  75 SE7       30.01S
ROLLA          CLOUDY    64  60  87 S8        30.03R
SEDALIA        LGT RAIN  68  62  81 CALM      30.01R
WHITEMAN AFB   TSTM      62  62  98 N6        30.00R VSB 3/4
WARRENSBURG    TSTM      63  61  94 CALM      30.02R
OSAGE BEACH    CLOUDY    68  61  77 SE7       30.02R

$$
MOZ051-052-059>065-031700-
...EAST CENTRAL MISSOURI...

CITY           SKY/WX    TMP DP  RH WIND       PRES   REMARKS
ST LOUIS INTL  CLOUDY    68  56  65 S8        30.06R
SPIRIT OF STL  CLOUDY    66  58  75 VRB3      30.04S
ST CHARLES     CLOUDY    65  57  75 S8G16     30.05S

$$
MOZ072>076-082>087-097>100-106>115-031700-
...SOUTH CENTRAL AND SOUTHEAST MISSOURI...

CITY           SKY/WX    TMP DP  RH WIND       PRES   REMARKS
CAPE GIRARDEAU CLOUDY    67  57  70 CALM      30.05R
FARMINGTON     CLOUDY    64  55  72 W3        30.10R
POPLAR BLUFF   CLOUDY    68  56  65 CALM      30.04S
WEST PLAINS    CLOUDY    62  58  86 S5        30.07R FOG

$$


USA.gov is the U.S. government's official web portal to all federal, state and local government web resources and services.